Overview Statistics Trail Chart Weather Telemetry Raw packets
 

This is the latest recevied weather packets stored in our database for station/object OE6ACM-10. If no packets are shown the sender has not sent any weather packets the latest 10 day(s).

<< 21 22 23 24 25 26 27 >>
Time Temp. Humidity Pressure Rain* Wind** Luminosity Snow
1788543145 30.56° C 100% 926.8 hPa - - - -
1788542845 31.11° C 100% 926.8 hPa - - - -
1788542545 31.67° C 100% 926.8 hPa - - - -
1788542245 32.22° C 100% 926.7 hPa - - - -
1788541945 32.78° C 100% 926.7 hPa - - - -
1788541645 33.89° C 100% 926.7 hPa - - - -
1788541345 34.44° C 100% 926.7 hPa - - - -
1788541045 35.56° C 100% 926.7 hPa - - - -
1788540745 36.11° C 100% 926.7 hPa - - - -
1788540445 37.22° C 100% 926.7 hPa - - - -
1788540145 37.78° C 95% 926.7 hPa - - - -
1788539845 37.78° C 96% 926.8 hPa - - - -
1788539545 38.33° C 88% 926.8 hPa - - - -
1788539245 38.89° C 90% 926.8 hPa - - - -
1788538945 38.89° C 91% 926.8 hPa - - - -
1788538645 38.89° C 85% 926.8 hPa - - - -
1788538345 39.44° C 76% 926.7 hPa - - - -
1788538045 39.44° C 70% 926.8 hPa - - - -
1788537745 40° C 75% 926.9 hPa - - - -
1788537445 40° C 70% 926.9 hPa - - - -
1788537145 40.56° C 64% 926.9 hPa - - - -
1788536845 41.11° C 63% 926.9 hPa - - - -
1788536545 41.11° C 65% 926.9 hPa - - - -
1788536245 41.11° C 55% 926.9 hPa - - - -
1788535945 41.67° C 54% 927 hPa - - - -

* Rain since midnight (hover to see other rain measurements)
** Current wind speed in m/s (hover to see current wind gust speed)